This is the latest recevied weather packets stored in our database for station/object KM4KMS. If no packets are shown the sender has not sent any weather packets the latest 10 day(s).
| Time | Temp. | Humidity | Pressure | Rain* | Wind** | Luminosity | Snow |
|---|---|---|---|---|---|---|---|
| 1777422096 | 20.56° C | 82% | 1012.2 hPa | 0 mm | - | 0 W/m² | - |
| 1777421795 | 20.56° C | 82% | 1012.1 hPa | 0 mm | - | 1 W/m² | - |
| 1777421492 | 20.56° C | 81% | 1012.4 hPa | 0 mm | - | 4 W/m² | - |
| 1777421188 | 21.11° C | 82% | 1012.3 hPa | 0 mm | - | 6 W/m² | - |
| 1777420884 | 21.11° C | 81% | 1011.9 hPa | 0 mm | - | 10 W/m² | - |
| 1777420581 | 21.11° C | 82% | 1012.1 hPa | 0 mm | - | 12 W/m² | - |
| 1777420276 | 21.67° C | 80% | 1011.8 hPa | 0 mm | - | 20 W/m² | - |
| 1777419972 | 21.67° C | 79% | 1011.9 hPa | 0 mm | - | 23 W/m² | - |
| 1777419669 | 21.67° C | 80% | 1011.7 hPa | 0 mm | - | 27 W/m² | - |
| 1777419367 | 21.67° C | 78% | 1012.1 hPa | 0 mm | - | 32 W/m² | - |
| 1777419066 | 21.67° C | 77% | 1011.9 hPa | 0 mm | - | 33 W/m² | - |
| 1777418765 | 22.22° C | 78% | 1012.1 hPa | 0 mm | - | 34 W/m² | - |
| 1777418463 | 22.22° C | 77% | 1012 hPa | 0 mm | - | 36 W/m² | - |
| 1777418159 | 22.22° C | 75% | 1012.3 hPa | 0 mm | - | 40 W/m² | - |
| 1777417855 | 22.78° C | 74% | 1012.3 hPa | 0 mm | - | 42 W/m² | - |
| 1777417551 | 22.78° C | 74% | 1012.5 hPa | 0 mm | - | 46 W/m² | - |
| 1777417247 | 22.78° C | 73% | 1012.5 hPa | 0 mm | - | 62 W/m² | - |
| 1777416944 | 22.78° C | 73% | 1012.5 hPa | 0 mm | - | 62 W/m² | - |
| 1777416638 | 23.33° C | 73% | 1012 hPa | 0 mm | - | 67 W/m² | - |
| 1777416334 | 23.33° C | 71% | 1012.2 hPa | 0 mm | - | 82 W/m² | - |
| 1777416034 | 23.33° C | 70% | 1012.1 hPa | 0 mm | - | 100 W/m² | - |
| 1777415730 | 23.33° C | 70% | 1012.1 hPa | 0 mm | - | 107 W/m² | - |
| 1777415426 | 23.33° C | 69% | 1011.8 hPa | 0 mm | - | 114 W/m² | - |
| 1777415126 | 23.89° C | 69% | 1012 hPa | 0 mm | - | 143 W/m² | - |
| 1777414821 | 23.89° C | 68% | 1012 hPa | 0 mm | - | 161 W/m² | - |
* Rain latest hour (hover to see other rain measurements)
** Current wind speed in m/s (hover to see current wind gust speed)